Wind_Speed
12 13 16 13 15 19 13 12 13 1 4 7 10 14 18 17 14 15 19 21 26 19 16 14 17 9 15 10 6 3 2 2 11 15 14 13 15 18 24 22 25 21 21 15
14 22 15 16 16 16 13 15 16 7 6 7 12 15 16 17 15 7 20 23 22 24 26 16 15 15 14 10 6 5 5 5 10 17 15 14 14 17 18 21 24 18 22 19
19 16 13 19 18 18 14 15 17 8 11 14 14 18 17 14 12 12 16 21 19 20 26 23 14 14 13 14 9 8 7 8 8 15 15 16 18 16 20 22 22 17 18 18
18 17 19 14 14 17 19 14 11 12 16 24 17 17 14 16 25 22 22 21 22 26 31 26 16 16 14 14 9 10 10 10 10 13 15 16 16 11 15 16 19 18 21 20
19 18 19 20 22 16 19 16 7 16 19 21 23 14 10 3 7 40 31 25 23 21 22 23 18 14 13 18 13 12 12 11 11 10 12 15 15 10 16 10 16 16 19 21
23 19 16 19 17 20 17 18 17 18 19 20 20 16 13 15 12 7 21 22 21 20 22 24 21 24 20 22 22 13 13 12 12 13 14 14 14 17 17 16 14 14 13 16
21 23 22 18 18 17 19 17 17 17 15 13 7 18 10 7 5 3 12 17 23 20 25 29 25 28 21 25 21 15 14 14 13 13 15 14 13 16 13 14 10 5 15 17
21 17 25 20 24 18 20 23 21 16 8 8 15 16 15 3 10 5 8 8 15 21 28 28 24 23 23 24 23 19 13 14 16 16 14 12 13 14 13 13 11 12 10 14
25 24 15 17 15 20 21 23 22 29 29 24 20 8 4 10 5 5 6 11 13 15 27 23 26 36 25 26 24 23 14 13 14 18 16 13 11 12 12 13 18 11 12 19
23 25 18 9 11 19 24 21 22 20 14 13 16 3 9 3 1 4 10 11 10 13 16 16 21 32 23 27 20 23 13 11 11 14 16 14 11 11 11 12 10 12 13 21
24 24 24 20 18 16 21 26 26 25 22 13 11 1 7 12 20 16 14 16 10 10 15 22 26 31 27 20 28 24 16 17 14 12 11 11 10 9 10 13 12 12 11 15
22 27 27 26 23 16 19 26 24 27 21 23 23 25 13 4 1 9 17 20 12 7 12 19 27 27 27 26 28 30 25 18 15 13 13 13 12 12 12 11 13 12 12 10
12 16 20 23 28 26 27 24 29 26 26 29 18 8 2 7 6 9 7 13 9 10 14 20 23 23 26 21 17 28 30 19 15 19 17 12 15 14 12 9 10 11 9 11
18 20 24 28 24 25 12 26 23 30 31 28 26 17 14 13 12 12 10 8 9 3 15 19 22 21 20 24 21 23 26 22 24 22 19 12 11 12 15 13 11 11 11 11
18 31 29 32 35 32 25 20 30 28 31 31 28 18 19 13 10 17 11 15 9 7 7 20 20 20 24 27 27 23 28 23 22 19 16 14 12 14 17 17 17 16 15 14
16 19 24 38 34 36 34 27 30 29 26 29 28 24 18 22 14 18 28 21 15 5 5 11 24 28 29 29 27 19 26 21 20 19 16 14 13 12 13 14 17 17 18 17
21 20 19 26 25 29 39 38 30 28 27 28 30 24 16 21 15 21 19 23 14 7 7 7 17 18 16 13 13 14 17 18 20 19 19 18 15 13 13 12 14 15 18 17
32 29 25 29 26 23 40 32 30 27 20 29 22 20 19 20 18 25 20 24 17 14 10 9 13 13 14 13 13 14 14 13 13 14 15 16 16 15 13 12 14 16 18 19
31 33 35 26 33 33 33 35 24 21 31 24 21 24 14 11 12 16 21 22 21 15 13 11 10 10 12 11 14 14 13 13 13 15 15 14 13 12 13 15 18 19 20 21
26 34 38 27 15 24 41 28 24 25 21 22 15 20 15 19 14 27 38 24 20 19 18 15 12 12 20 19 10 13 12 10 10 10 10 11 12 15 18 17 17 18 19 20
25 26 29 36 29 21 28 23 26 26 17 41 12 12 17 14 15 13 23 40 29 24 19 20 10 6 7 10 14 14 12 11 11 11 12 13 15 15 15 15 15 17 17 19
30 22 25 31 23 27 14 15 13 21 11 25 27 14 10 6 10 10 12 45 37 23 25 19 12 8 8 10 12 11 10 9 11 12 13 14 14 15 16 15 14 15 14 15
11 10 17 22 26 16 24 8 10 17 20 18 25 6 8 10 9 13 19 29 23 26 25 20 14 9 6 6 8 7 6 7 7 8 9 9 10 10 12 11 12 12 15 19
16 20 18 12 17 28 16 15 13 14 17 31 14 16 7 3 6 12 16 18 41 35 32 26 20 11 7 6 6 5 4 5 5 4 4 5 6 8 10 12 13 14 13 12
17 16 14 13 13 9 20 23 21 10 20 26 24 17 13 5 2 8 11 21 33 40 40 35 22 14 8 7 4 4 5 6 5 5 7 9 11 11 13 13 15 15 15 16
18 18 20 19 20 16 11 27 13 15 11 9 35 32 17 15 9 11 14 10 35 44 39 32 24 16 10 8 5 5 5 5 4 6 8 8 9 11 12 14 17 17 18 18
Wind_Direction
242 248 243 250 258 278 288 298 289 209 186 266 259 255 243 232 236 224 199 200 200 218 211 240 204 236 242 227 210 216 174 139 161 148 155 164 165 176 178 176 180 181 187 183
243 243 255 257 263 275 289 280 278 285 265 279 278 275 266 228 267 265 206 205 195 197 224 246 202 249 230 237 198 225 170 134 171 155 154 162 162 170 177 182 183 187 195 195
247 255 250 257 261 262 275 268 279 289 286 283 271 276 261 301 228 254 232 204 202 200 225 232 248 257 229 262 200 213 188 167 173 165 157 157 167 172 171 173 181 197 207 209
258 257 256 257 260 261 266 280 275 296 291 286 252 275 221 231 241 208 227 219 203 204 211 241 235 220 249 275 205 208 193 192 187 178 164 158 158 163 172 172 182 196 207 208
256 257 251 258 257 262 259 258 289 283 274 279 268 240 194 226 323 213 198 211 209 207 219 228 229 210 221 257 267 196 189 190 203 199 170 171 182 150 173 179 184 202 206 215
255 261 253 261 258 252 254 259 276 276 265 264 282 254 158 198 303 220 211 212 209 206 208 220 226 208 203 231 259 214 198 193 191 203 194 191 192 182 170 199 215 216 207 206
258 255 253 249 256 248 239 246 254 257 242 259 13 323 260 177 167 166 194 208 213 207 201 207 216 225 210 218 245 246 200 201 193 199 200 200 196 193 201 196 200 229 225 219
259 245 234 234 236 243 236 235 248 263 303 290 197 215 125 171 145 172 203 204 207 209 214 223 219 213 221 213 242 250 195 210 203 199 200 205 205 212 205 215 212 211 179 220
266 270 298 230 239 235 243 232 249 270 277 279 276 226 165 147 132 182 199 196 199 208 218 226 210 211 229 224 232 239 196 209 211 205 201 206 207 215 222 202 212 229 209 214
253 266 266 267 230 240 236 239 243 243 272 280 274 53 95 113 281 223 198 210 200 190 213 213 211 210 218 215 232 230 206 204 212 207 204 207 209 219 217 233 232 234 231 223
247 251 260 262 235 239 230 240 251 262 268 292 292 181 227 191 272 284 218 185 173 187 205 207 207 212 220 241 238 222 225 207 209 208 211 213 218 230 242 240 243 241 247 232
244 248 247 252 256 250 241 241 235 246 257 260 280 306 201 243 125 184 225 230 141 196 202 204 216 216 230 229 233 230 237 218 224 227 242 234 250 251 254 243 257 253 247 250
277 258 272 258 253 250 239 240 242 239 242 262 269 232 261 160 189 192 242 116 145 188 198 194 216 229 235 236 221 226 234 223 216 249 255 252 264 258 260 257 262 268 258 257
261 260 261 274 267 263 256 258 238 239 242 243 254 246 188 222 223 195 185 243 244 216 186 180 206 223 245 204 251 239 237 232 228 240 245 257 257 254 250 253 261 264 267 261
263 256 255 261 269 277 271 239 255 238 249 257 254 247 211 228 215 185 183 227 201 171 178 182 185 212 220 231 241 243 227 222 215 236 241 246 235 265 260 257 257 264 269 268
273 281 271 254 257 264 270 253 256 255 238 241 250 253 247 268 251 233 184 203 196 188 174 185 180 209 223 238 248 239 230 236 236 230 203 237 252 261 272 256 255 262 266 273
273 277 278 279 264 264 261 251 251 246 250 235 243 250 214 189 174 191 203 198 198 205 184 185 189 212 215 217 209 214 220 228 231 230 225 233 250 261 255 252 255 262 268 270
260 259 265 266 284 263 251 250 258 255 262 243 236 251 210 243 232 225 216 212 202 198 193 179 193 200 196 196 191 193 192 195 206 218 226 238 246 250 249 255 261 265 268 271
247 250 256 246 254 265 264 253 263 256 251 272 248 239 241 198 216 224 207 199 193 197 196 182 191 184 177 209 193 193 206 216 217 223 227 227 227 240 256 269 271 271 272 274
249 239 243 230 232 251 255 256 257 258 258 243 253 233 254 223 241 235 200 178 193 188 192 177 178 171 176 211 203 190 196 198 202 209 222 239 254 266 274 271 266 269 276 280
268 240 249 243 233 241 236 267 254 261 245 244 274 248 260 227 255 232 239 175 179 185 177 186 171 159 173 191 194 194 199 209 218 230 243 255 265 270 275 276 277 281 283 281
267 254 238 268 260 238 233 263 256 232 211 211 233 271 237 257 214 260 184 184 161 169 186 190 180 167 154 167 175 179 189 210 233 244 251 259 265 270 273 272 273 279 282 285
290 280 268 242 235 223 234 255 300 264 233 195 209 266 281 212 210 204 218 212 161 161 207 201 189 174 153 136 160 177 204 228 235 250 260 267 274 278 289 297 295 286 281 281
304 296 276 282 261 251 237 246 258 216 248 208 195 258 224 150 229 196 211 237 246 181 186 207 197 185 173 166 188 208 252 238 230 235 261 280 292 295 292 291 294 294 296 296
286 306 303 314 295 236 230 254 261 131 172 202 227 257 243 234 128 225 216 247 226 183 189 204 192 190 181 191 225 246 264 235 234 271 293 300 300 299 295 292 290 288 289 291
274 286 299 301 280 276 252 231 207 206 107 188 237 241 254 205 192 214 226 246 170 173 199 203 193 187 183 209 236 268 268 231 259 289 300 302 305 313 314 315 311 308 304 299
Height
3171 3172 3170 3168 3166 3164 3164 3163 3162 3161 3164 3164 3163 3161 3158 3157 3159 3158 3159 3163 3165 3167 3169 3171 3173 3174 3172 3171 3172 3173 3173 3172 3173 3173 3175 3177 3178 3181 3185 3190 3195 3197 3197 3197
3170 3167 3167 3167 3165 3163 3163 3163 3160 3159 3160 3160 3159 3158 3157 3155 3155 3158 3159 3160 3162 3166 3165 3168 3170 3172 3171 3169 3171 3173 3173 3174 3175 3175 3177 3178 3180 3182 3186 3190 3194 3197 3197 3196
3165 3164 3164 3163 3163 3162 3163 3162 3158 3158 3158 3156 3154 3153 3156 3152 3154 3156 3159 3158 3160 3163 3162 3164 3168 3169 3170 3168 3170 3173 3173 3175 3177 3177 3179 3180 3179 3181 3183 3188 3196 3199 3199 3199
3162 3162 3161 3161 3161 3161 3159 3158 3156 3156 3156 3150 3149 3147 3147 3153 3149 3151 3156 3158 3160 3161 3162 3163 3165 3167 3168 3167 3169 3171 3173 3175 3178 3179 3180 3183 3183 3184 3184 3189 3194 3199 3200 3201
3159 3158 3158 3158 3158 3159 3158 3157 3156 3156 3154 3150 3143 3145 3144 3142 3136 3128 3141 3151 3157 3157 3156 3160 3162 3164 3167 3165 3167 3170 3172 3174 3177 3180 3182 3184 3183 3184 3184 3187 3192 3197 3199 3200
3155 3156 3155 3155 3154 3155 3156 3155 3154 3153 3151 3146 3138 3142 3138 3141 3137 3130 3139 3148 3151 3154 3159 3157 3160 3165 3167 3166 3166 3169 3171 3174 3176 3179 3182 3184 3184 3185 3187 3189 3192 3195 3198 3200
3152 3150 3151 3152 3152 3152 3153 3153 3151 3148 3144 3139 3139 3139 3132 3134 3134 3135 3141 3144 3145 3149 3155 3157 3159 3161 3166 3166 3166 3167 3170 3173 3175 3177 3180 3183 3186 3187 3188 3189 3192 3193 3195 3196
3144 3143 3141 3144 3146 3149 3148 3150 3147 3143 3138 3140 3136 3139 3138 3134 3134 3137 3140 3144 3144 3146 3148 3152 3154 3157 3163 3165 3166 3165 3170 3172 3174 3176 3178 3181 3185 3187 3189 3188 3191 3194 3193 3192
3143 3139 3138 3138 3142 3146 3144 3144 3147 3143 3136 3131 3128 3128 3129 3132 3135 3136 3139 3141 3143 3144 3143 3149 3152 3155 3159 3163 3165 3165 3169 3170 3172 3175 3177 3179 3182 3184 3186 3189 3191 3191 3191 3193
3141 3140 3138 3138 3139 3141 3142 3143 3142 3139 3137 3133 3126 3127 3130 3132 3134 3136 3138 3141 3142 3144 3144 3144 3146 3152 3156 3160 3164 3164 3168 3170 3172 3174 3176 3178 3180 3182 3186 3187 3189 3186 3188 3191
3136 3137 3137 3135 3134 3135 3138 3138 3138 3137 3135 3131 3128 3129 3130 3131 3130 3135 3137 3135 3138 3140 3146 3148 3147 3150 3152 3158 3160 3162 3166 3169 3171 3173 3175 3177 3179 3181 3184 3185 3187 3188 3189 3191
3130 3130 3129 3131 3130 3130 3131 3132 3134 3135 3133 3132 3129 3125 3123 3127 3129 3132 3122 3121 3128 3136 3141 3146 3144 3146 3150 3155 3157 3160 3161 3168 3170 3171 3172 3175 3177 3179 3182 3183 3185 3187 3187 3190
3126 3125 3123 3124 3126 3124 3124 3125 3127 3128 3130 3126 3126 3126 3129 3127 3129 3131 3123 3120 3124 3134 3139 3144 3143 3143 3144 3147 3152 3158 3159 3165 3169 3170 3171 3174 3176 3177 3179 3180 3182 3183 3184 3186
3127 3126 3125 3121 3118 3119 3116 3118 3121 3123 3121 3121 3121 3122 3124 3125 3126 3129 3131 3130 3131 3133 3137 3141 3142 3142 3141 3143 3149 3154 3158 3162 3165 3168 3170 3171 3173 3174 3176 3177 3179 3180 3181 3183
3123 3121 3123 3120 3117 3115 3117 3118 3116 3117 3117 3117 3117 3118 3120 3121 3124 3125 3128 3131 3131 3131 3133 3137 3142 3140 3142 3145 3148 3152 3154 3159 3161 3164 3167 3170 3171 3172 3173 3174 3176 3178 3179 3180
3120 3115 3118 3112 3114 3112 3110 3112 3114 3110 3112 3114 3114 3114 3113 3117 3118 3120 3115 3125 3127 3126 3128 3131 3136 3138 3141 3142 3144 3148 3151 3154 3159 3162 3165 3169 3169 3170 3170 3172 3174 3174 3176 3177
3115 3114 3114 3107 3110 3109 3105 3102 3106 3108 3106 3108 3109 3111 3110 3114 3116 3115 3114 3121 3120 3121 3124 3127 3130 3133 3137 3139 3142 3145 3148 3152 3155 3158 3162 3165 3166 3167 3168 3169 3171 3171 3172 3172
3108 3110 3110 3107 3109 3102 3085 3099 3100 3101 3102 3104 3105 3106 3102 3107 3111 3111 3117 3118 3116 3120 3123 3125 3128 3129 3132 3136 3139 3143 3147 3150 3154 3157 3159 3162 3163 3164 3164 3166 3167 3168 3168 3167
3100 3101 3101 3101 3105 3094 3092 3090 3094 3097 3097 3098 3099 3103 3101 3095 3100 3108 3080 3116 3115 3119 3123 3125 3127 3128 3131 3133 3137 3141 3145 3149 3152 3154 3156 3159 3160 3161 3162 3162 3163 3162 3162 3162
3089 3091 3095 3095 3095 3093 3085 3093 3093 3093 3087 3094 3095 3098 3099 3095 3096 3091 3099 3105 3114 3120 3125 3127 3129 3129 3132 3133 3136 3139 3143 3147 3150 3152 3154 3156 3157 3158 3158 3158 3158 3157 3157 3156
3081 3083 3082 3082 3085 3087 3089 3082 3086 3084 3089 3090 3090 3093 3092 3093 3090 3086 3075 3104 3111 3116 3125 3128 3129 3131 3131 3133 3136 3138 3142 3145 3148 3150 3152 3153 3154 3154 3154 3153 3153 3153 3152 3151
3077 3073 3076 3081 3082 3082 3085 3079 3077 3073 3079 3080 3088 3090 3094 3091 3091 3085 3083 3085 3094 3112 3121 3126 3129 3130 3133 3133 3135 3138 3140 3143 3145 3147 3149 3149 3150 3150 3150 3150 3149 3149 3148 3147
3071 3066 3064 3070 3064 3080 3079 3071 3073 3072 3074 3080 3081 3086 3093 3093 3091 3091 3086 3090 3095 3105 3122 3125 3128 3128 3131 3133 3135 3137 3139 3141 3142 3144 3145 3146 3146 3146 3145 3145 3144 3144 3143 3142
3063 3063 3063 3061 3066 3065 3068 3062 3067 3066 3074 3077 3077 3093 3091 3090 3089 3091 3089 3086 3093 3109 3121 3120 3124 3125 3128 3131 3133 3135 3137 3138 3140 3141 3143 3143 3143 3143 3143 3142 3141 3140 3139 3139
3066 3065 3061 3057 3056 3062 3058 3066 3067 3066 3066 3074 3079 3081 3081 3086 3085 3081 3083 3087 3085 3097 3109 3108 3112 3119 3123 3128 3131 3133 3134 3136 3139 3140 3141 3141 3141 3140 3140 3139 3138 3137 3136 3135
3060 3062 3058 3053 3055 3053 3059 3064 3066 3065 3063 3068 3074 3078 3075 3080 3084 3079 3080 3079 3081 3093 3106 3108 3106 3109 3115 3124 3128 3130 3132 3134 3136 3138 3139 3139 3139 3137 3136 3135 3133 3132 3131 3130